Wind_Speed
32 32 33 34 35 34 32 32 33 33 32 32 33 32 31 29 29 29 28 28 28 28 28 29 29 28 27 26 24 20 19 19 19 18 19 18 18 19 21 22 22 21 21 22 22 22 21 19 19 19 18 16 15 14 12 10 10 10 10 10 10 9 7 8 12 15 16 18 19 19 20 23 29 29 22 17 18 23 25 24 22 21 22 24 24 23 22
34 33 33 32 30 31 31 32 33 33 31 30 30 31 31 31 31 30 30 30 30 29 29 29 28 27 26 26 23 20 19 21 22 22 22 21 20 20 20 22 22 21 21 22 22 22 21 20 19 19 20 19 18 16 15 13 11 11 11 10 10 11 11 12 13 15 16 17 18 19 19 20 25 31 29 25 23 24 26 27 26 23 24 25 25 24 23
35 33 34 33 31 30 31 32 33 33 31 30 28 27 28 30 32 32 32 32 30 29 29 29 28 28 27 28 27 25 24 25 26 27 26 25 23 22 22 22 23 23 22 22 23 22 21 20 19 19 20 20 20 19 17 15 14 13 12 11 10 11 13 14 14 16 18 19 19 19 18 19 22 27 28 27 26 25 24 27 28 25 25 27 26 25 25
29 29 29 30 30 29 29 29 30 31 30 29 28 27 26 27 28 30 30 31 30 29 29 30 31 31 31 30 29 27 26 24 24 25 26 26 26 25 25 25 25 24 24 23 23 23 22 22 21 20 19 20 21 21 20 18 16 15 14 13 12 13 14 15 16 18 20 21 22 21 20 19 20 24 26 26 26 27 25 26 28 28 27 28 26 26 26
24 25 27 27 27 28 28 25 24 25 25 26 27 28 27 27 27 28 29 29 29 28 28 30 32 32 32 30 28 27 27 25 24 25 26 27 27 27 27 26 26 25 24 24 24 24 24 24 23 22 21 20 21 22 22 20 19 17 16 15 14 15 16 16 16 18 20 22 23 23 22 21 21 23 25 25 27 28 26 26 29 30 29 29 27 28 28
22 23 25 26 27 29 29 27 24 23 23 24 25 26 26 26 27 27 26 26 26 26 27 28 30 31 31 30 28 27 27 27 26 26 27 27 28 28 27 27 27 27 26 25 25 26 26 26 25 25 24 22 22 22 22 22 20 19 18 17 16 17 17 17 17 19 22 24 24 24 25 24 23 23 24 24 26 30 30 28 30 32 32 30 29 29 30
22 22 23 25 25 27 28 27 26 25 25 25 26 26 25 23 23 23 23 23 24 24 25 27 29 30 31 30 29 28 27 28 28 27 27 27 27 27 27 27 28 28 28 28 28 28 28 28 27 27 26 25 24 23 22 22 21 20 19 18 18 18 18 19 19 19 22 24 24 24 25 24 23 23 23 23 26 31 34 32 31 33 33 32 31 31 31
25 24 25 25 25 26 26 26 26 25 26 26 26 27 27 25 23 22 23 23 23 23 24 25 27 29 30 31 30 29 29 29 28 27 27 27 27 27 28 28 29 30 30 30 30 30 30 30 30 29 29 28 26 24 23 22 22 22 20 19 19 19 19 20 20 20 21 23 24 24 24 24 23 22 23 23 25 32 38 37 34 34 35 34 33 32 31
25 25 25 25 25 26 26 26 26 26 26 26 27 28 28 28 27 26 25 24 22 22 22 23 25 27 29 30 31 31 30 31 31 29 29 29 28 28 29 29 30 31 31 31 32 31 31 32 32 31 31 30 29 27 24 23 23 22 21 20 19 20 20 21 21 20 20 22 24 24 25 26 26 24 22 24 26 31 37 38 37 36 35 34 33 33 32
25 25 25 26 26 25 25 25 26 25 25 25 26 27 28 29 29 29 28 26 25 23 22 22 22 24 25 28 30 31 32 33 34 34 33 31 29 29 30 30 31 32 32 32 33 33 33 33 33 33 33 32 32 30 28 25 25 24 22 21 20 20 20 21 22 22 21 22 24 24 25 27 28 25 23 26 29 31 33 37 38 38 36 34 34 35 34
24 24 24 25 24 23 24 24 24 24 24 24 25 26 27 27 28 28 28 28 27 27 27 25 24 24 25 27 28 29 31 32 33 35 35 34 31 30 31 31 32 33 34 33 33 33 34 34 34 35 35 34 33 32 30 28 26 25 24 23 21 21 21 21 22 22 21 21 21 21 22 25 27 27 26 29 33 34 34 37 40 40 38 35 37 38 36
22 22 22 22 21 21 21 21 22 22 22 22 23 24 25 25 25 25 25 25 25 26 27 26 26 26 27 27 27 27 28 29 30 32 35 35 34 32 32 32 33 34 35 35 34 34 34 34 35 36 36 36 35 33 32 30 28 26 25 24 23 22 22 22 23 23 22 22 21 21 22 23 26 30 33 36 39 40 38 38 41 44 42 39 39 39 36
19 20 20 20 20 20 19 19 19 20 21 22 22 22 22 22 22 22 22 23 23 24 24 24 24 25 26 27 27 27 27 27 29 30 33 34 34 34 34 35 35 35 35 35 34 34 34 34 35 36 37 37 36 35 33 31 29 27 26 25 24 23 22 23 24 24 23 23 24 24 23 22 24 30 33 35 39 40 39 40 44 47 46 43 41 39 36
19 19 19 19 20 19 18 17 15 14 17 19 20 21 22 22 22 22 22 22 23 22 22 21 22 23 24 24 25 24 25 26 28 29 30 32 33 34 35 35 35 35 35 34 34 33 33 34 35 36 36 37 36 36 34 32 30 28 27 26 25 24 23 23 24 24 24 24 24 25 24 22 24 27 29 32 36 37 37 42 48 49 48 46 44 41 37
19 19 19 19 20 19 19 18 16 13 13 15 16 17 18 20 21 21 20 20 21 21 21 21 21 22 23 23 23 23 23 24 25 26 27 29 31 32 33 34 34 35 34 33 33 33 33 34 34 35 35 36 36 36 35 34 32 30 28 27 26 25 24 23 23 24 24 24 24 24 23 22 22 24 26 31 37 38 37 42 47 48 47 46 44 42 39
18 18 18 18 18 18 17 19 19 18 16 15 14 14 14 14 15 15 15 15 16 18 19 20 20 21 22 23 23 23 23 23 23 24 25 26 28 29 30 32 33 33 33 32 32 33 33 34 34 35 36 36 36 36 36 36 34 32 30 29 28 27 25 25 24 23 24 24 23 22 21 20 22 29 33 35 37 37 38 42 45 45 46 45 44 43 41
17 17 16 16 16 15 15 15 17 18 17 16 15 13 13 13 12 12 12 13 13 14 14 15 16 17 18 19 21 22 23 24 24 25 26 26 26 27 28 29 30 29 28 28 29 30 31 32 33 34 36 37 36 36 36 36 36 35 33 31 30 29 28 27 26 24 23 23 23 22 22 20 23 31 38 39 36 33 34 40 44 45 45 46 45 45 44
15 15 15 14 14 13 12 13 15 16 16 15 13 12 12 12 11 10 11 12 12 12 12 12 12 13 13 15 16 17 19 20 21 23 25 26 26 26 26 26 26 25 25 26 28 29 29 30 30 32 33 34 34 34 34 34 36 36 35 33 32 31 31 29 27 26 25 24 24 24 25 24 25 27 31 34 36 34 35 40 45 47 48 48 48 48 47
12 11 11 13 13 13 12 11 12 13 14 15 13 11 9 8 7 7 8 9 10 11 11 11 11 11 12 13 14 15 15 16 17 18 20 21 23 24 25 25 25 25 26 27 29 29 30 30 30 31 32 32 32 32 32 31 32 33 34 33 32 32 32 30 29 27 26 25 25 25 26 27 28 28 28 28 31 35 38 42 44 45 46 47 46 46 45
11 10 9 12 14 15 13 11 9 9 11 11 10 8 6 5 4 4 5 6 8 9 10 11 11 12 13 14 15 15 16 16 17 17 18 19 20 21 23 24 26 27 29 31 32 32 32 32 32 33 34 33 33 33 32 32 32 32 32 32 32 32 33 33 32 29 27 27 27 27 28 28 29 29 29 27 27 31 37 41 43 43 43 42 42 42 42
11 9 9 12 14 14 13 11 9 8 9 8 8 6 5 4 3 3 4 6 7 9 10 12 13 14 15 16 17 18 19 19 19 19 19 20 21 22 23 24 25 26 28 31 33 35 35 36 36 36 36 37 37 37 37 36 35 34 33 32 32 32 33 34 33 31 29 28 28 28 28 28 28 29 30 29 28 28 30 32 34 36 37 37 37 38 38
7 6 9 13 14 13 12 11 10 8 7 6 5 4 3 2 1 2 4 5 7 8 9 11 12 13 15 17 18 20 21 22 23 23 23 24 24 24 25 26 26 27 28 29 31 33 35 36 37 38 38 39 39 40 40 40 39 38 37 35 33 33 33 32 31 30 29 27 27 27 26 26 26 27 28 28 28 28 27 27 26 26 27 29 30 32 33
9 9 11 13 14 13 11 9 8 6 5 4 3 2 2 0 1 2 3 5 6 7 8 10 12 13 14 16 17 18 20 22 23 25 26 27 27 28 28 29 30 30 30 31 31 32 33 34 35 36 37 39 39 40 41 41 40 40 40 38 35 33 33 33 32 32 32 31 30 30 29 28 27 27 27 27 28 28 28 29 28 26 26 26 27 29 31
12 12 12 12 12 12 10 8 8 6 5 4 3 2 1 1 2 3 5 7 9 10 11 13 15 17 18 19 19 20 20 21 21 23 24 26 27 29 30 31 32 32 33 34 34 34 35 34 35 35 36 37 38 39 40 40 40 41 41 40 38 35 34 34 34 34 35 35 35 35 35 35 35 34 32 31 31 30 30 30 30 30 30 29 29 29 30
13 12 12 11 12 12 10 8 7 5 4 3 2 2 3 4 6 7 9 10 12 13 14 15 16 18 19 20 21 21 20 20 21 21 22 23 25 26 27 29 31 32 34 35 36 37 37 36 36 36 36 36 36 37 38 39 40 40 41 41 40 38 36 36 36 37 37 37 37 37 37 38 38 39 38 38 37 37 36 35 34 34 34 35 35 35 35
14 12 12 11 11 10 8 6 5 3 2 2 3 5 6 7 9 10 10 11 12 13 14 15 16 18 19 20 20 20 20 20 21 21 22 22 23 24 25 26 28 30 31 33 35 36 37 38 38 38 38 37 37 37 38 38 38 39 40 40 40 40 38 37 37 38 38 39 39 39 39 38 39 40 41 42 42 42 41 41 40 40 39 40 40 41 41
12 11 10 9 8 6 5 3 2 1 2 3 4 5 6 7 8 9 9 10 11 13 14 16 17 18 19 21 21 21 21 21 21 22 22 22 23 23 24 25 26 27 28 30 31 33 35 37 38 39 40 39 39 39 39 39 38 38 39 40 40 39 38 37 37 38 39 40 41 42 42 41 40 40 42 43 44 44 44 43 43 43 43 43 43 44 44
9 8 7 6 5 4 3 2 2 2 3 3 4 4 5 5 5 7 8 10 11 13 15 16 18 19 20 21 22 22 21 21 21 21 21 22 22 23 23 24 24 25 26 28 29 30 31 32 34 37 39 40 41 40 40 41 41 40 40 40 41 40 39 38 38 38 39 40 41 42 42 42 42 41 41 42 44 45 45 44 44 44 43 43 43 43 44
8 7 6 4 4 3 3 4 4 4 4 3 3 3 3 5 6 7 9 10 12 14 15 17 18 19 20 21 22 22 22 21 21 20 21 21 21 22 23 23 24 24 25 26 27 28 29 29 30 31 33 36 39 41 42 41 41 42 41 41 42 42 42 41 40 40 40 40 41 41 41 41 41 40 40 40 41 43 43 43 43 42 42 42 41 40 40
6 5 4 4 4 5 5 5 5 4 4 4 4 5 6 7 9 10 11 12 13 14 16 17 19 20 21 22 23 24 24 24 23 23 22 22 22 23 23 24 24 25 25 26 26 26 27 28 29 29 29 30 32 37 40 42 42 42 42 42 42 43 43 43 42 42 41 41 42 43 42 42 42 41 41 40 40 40 41 41 41 41 41 40 39 38 38
5 5 5 5 5 5 5 4 4 4 5 5 6 7 9 10 11 12 13 15 16 17 18 19 20 21 22 23 24 25 26 26 26 26 26 25 25 25 25 25 25 26 27 27 27 27 27 27 28 28 28 28 27 29 32 37 39 41 42 42 42 42 43 43 43 42 42 42 42 43 43 44 44 43 42 41 41 40 40 40 40 40 40 39 39 38 38
4 4 5 5 5 4 4 3 3 4 5 6 8 9 11 12 13 14 15 17 18 19 19 20 22 22 23 24 25 26 27 27 28 28 28 28 28 28 28 28 28 28 27 27 27 27 27 26 27 27 27 27 27 26 27 30 33 36 38 39 40 41 42 42 42 42 42 42 42 42 42 43 44 44 43 42 41 40 40 39 39 39 40 40 40 39 38
3 3 4 4 3 3 2 2 3 5 6 8 9 10 12 13 14 15 16 18 19 20 21 22 22 23 24 25 26 27 28 28 28 29 29 29 29 29 29 30 29 29 28 27 27 27 27 26 25 26 26 25 25 24 24 26 27 29 31 33 35 36 38 39 40 41 41 41 41 41 41 42 42 43 43 43 42 41 40 39 39 38 38 38 39 39 38
2 3 3 3 2 2 2 3 5 6 8 9 11 12 13 14 15 16 17 18 19 21 22 23 23 24 25 26 26 27 28 29 29 29 29 30 30 29 29 30 30 30 28 27 26 27 27 26 26 25 25 24 23 22 22 22 23 24 26 27 28 30 32 34 36 38 39 40 41 41 41 42 42 42 43 43 42 42 41 40 40 39 38 38 38 38 38
3 3 3 3 3 3 3 4 6 7 8 10 11 13 14 15 16 16 17 18 19 21 22 23 24 25 26 26 27 28 28 29 29 30 30 30 30 29 29 30 31 30 28 26 27 27 26 26 26 25 24 23 22 21 20 20 20 21 22 23 24 25 26 27 29 32 35 37 39 40 40 41 41 42 42 42 42 42 42 42 42 42 41 40 39 39 39
5 4 4 3 3 3 4 5 6 8 9 10 11 13 14 15 16 17 17 18 19 21 22 23 25 26 27 27 28 28 29 29 30 30 30 30 30 29 29 29 30 29 27 26 26 26 26 26 26 26 25 24 23 21 19 18 18 19 20 21 22 22 22 22 23 26 28 31 33 35 37 38 39 40 41 42 42 42 43 43 43 43 43 43 42 41 41
5 5 4 3 3 4 5 6 7 8 10 11 12 13 14 15 16 17 18 19 20 21 22 23 25 26 27 28 28 29 29 29 30 30 30 30 30 29 29 29 29 29 27 26 25 25 26 26 26 26 25 24 23 21 20 18 18 18 19 19 20 20 20 19 19 21 23 25 27 28 30 32 34 36 37 39 40 41 42 43 43 43 43 43 43 43 42
5 4 3 3 3 4 5 6 8 9 10 11 12 13 14 15 16 17 18 19 20 21 22 23 25 26 27 28 28 28 29 29 30 30 30 30 30 29 28 29 29 29 27 25 25 25 25 25 25 24 24 23 22 21 20 19 18 18 18 18 18 19 19 19 19 19 20 22 23 24 25 26 27 29 31 33 35 37 38 40 40 41 41 41 42 42 41
4 3 2 2 3 4 5 7 8 10 10 11 12 13 14 14 15 16 18 19 20 21 22 23 25 26 27 27 28 28 28 29 30 30 30 29 29 29 28 28 29 28 27 25 25 24 24 24 23 22 22 22 21 20 19 19 19 18 18 18 17 18 18 18 18 18 19 20 21 22 23 24 24 24 25 26 27 29 31 33 34 35 36 36 37 37 37
3 2 1 1 3 4 6 8 9 10 10 11 12 12 13 14 15 17 18 19 20 21 22 23 24 25 26 27 27 27 28 28 29 29 29 29 29 28 28 28 28 28 26 25 25 24 24 23 22 21 21 21 20 18 18 18 18 17 17 17 17 17 17 18 18 18 18 19 20 21 21 22 22 22 22 22 22 23 24 25 27 28 29 30 30 31 32
2 1 0 2 4 5 7 8 8 9 10 10 11 12 13 14 15 16 17 18 19 20 21 22 23 23 25 26 26 27 28 28 28 28 29 29 29 28 27 27 27 27 26 25 25 24 23 23 22 22 22 22 21 19 18 17 16 16 16 16 15 15 16 17 18 18 18 18 19 20 20 21 21 21 21 21 21 20 20 21 22 23 25 25 26 27 28
2 0 2 3 5 5 6 7 8 9 10 11 11 12 13 14 15 16 16 17 18 19 20 21 22 23 24 25 26 27 28 28 28 28 29 29 29 28 28 27 27 26 26 25 25 24 23 23 24 24 24 23 22 21 20 19 18 17 16 15 15 15 15 16 17 17 18 17 17 18 19 20 20 20 20 20 20 20 20 20 20 22 23 23 24 25 26
2 1 2 3 4 5 6 7 8 9 10 11 12 12 13 13 14 15 16 17 18 19 20 21 22 23 24 25 26 27 28 29 29 29 29 29 28 28 28 28 27 26 26 25 25 24 24 24 24 24 24 23 23 22 22 21 20 19 18 17 16 15 15 15 16 16 16 16 16 16 17 18 19 20 20 20 19 20 20 20 20 21 21 22 23 23 24
2 1 1 3 4 5 6 7 8 9 10 11 12 12 13 13 14 15 16 17 18 20 21 22 22 23 24 25 26 27 28 28 29 29 29 29 29 28 28 28 28 27 26 25 24 24 24 24 24 23 22 22 23 24 24 24 23 22 20 19 17 16 15 15 16 16 16 16 15 15 16 16 18 19 20 19 19 19 19 19 19 20 20 21 21 22 23
1 1 3 4 5 6 7 8 8 10 11 11 12 12 12 13 14 15 16 18 19 20 21 22 23 24 24 25 26 27 28 29 29 30 30 30 29 29 29 28 28 27 26 25 25 24 24 24 25 25 24 25 27 28 28 26 24 24 23 21 20 18 17 16 16 16 16 16 16 15 14 14 16 18 19 19 19 19 19 19 19 20 20 20 21 21 21
2 4 5 6 7 8 8 8 9 10 11 11 11 11 12 14 15 16 17 18 20 21 22 23 24 24 25 26 26 27 28 29 30 30 30 30 30 30 29 29 28 28 27 27 26 26 25 25 26 27 29 30 31 31 29 26 25 24 24 23 22 20 19 18 17 17 16 16 17 16 15 14 14 16 18 18 18 18 18 19 19 19 19 19 19 20 20
4 6 7 8 8 9 9 9 10 11 11 11 11 12 13 15 16 18 19 20 21 22 23 24 24 25 25 26 27 28 29 30 30 30 31 31 31 30 30 30 29 29 29 28 28 27 26 26 27 29 30 31 30 29 27 25 24 24 24 24 23 22 21 20 20 18 17 16 17 17 17 16 14 15 16 17 18 18 18 18 19 19 19 19 19 20 21
6 8 8 9 9 9 9 9 10 10 10 10 11 13 15 16 18 19 20 21 22 23 24 25 25 26 26 27 28 29 29 30 30 31 31 32 32 32 31 31 31 30 30 30 29 29 29 28 28 29 30 30 29 27 26 25 24 23 24 24 24 24 23 22 21 20 19 17 17 17 18 17 15 14 15 16 17 17 17 18 18 19 20 19 19 20 21
8 9 10 10 10 10 10 10 10 10 10 11 13 15 16 18 19 20 21 22 23 24 25 25 26 27 27 28 29 30 30 31 31 32 32 32 32 33 33 32 32 32 31 31 31 30 30 30 30 30 30 29 28 27 26 25 25 24 24 24 24 23 22 21 21 21 20 19 18 18 18 18 17 15 14 15 16 17 17 17 18 19 20 20 19 19 20
10 11 11 11 10 10 10 10 10 10 11 13 15 16 17 18 19 21 22 23 24 25 26 26 27 27 28 28 29 30 31 32 32 32 33 33 33 34 34 33 33 33 33 33 33 32 32 32 31 30 30 29 29 27 25 25 25 25 24 23 23 22 21 20 20 20 20 19 19 18 19 19 18 17 15 15 15 16 17 17 18 19 20 21 20 20 20
12 12 12 11 10 10 9 10 11 12 13 15 16 17 18 19 20 22 24 25 26 26 27 27 28 28 29 29 30 31 31 32 32 33 33 33 34 34 34 34 34 34 34 34 34 34 33 33 33 31 30 29 29 27 25 24 24 24 23 22 21 21 21 19 19 19 19 19 19 18 19 19 19 18 16 15 15 15 16 17 18 19 21 22 21 20 20
13 12 12 11 10 9 9 10 12 14 15 16 17 18 20 21 22 24 25 26 27 28 28 28 29 29 30 30 31 32 32 33 33 33 34 34 34 35 35 34 34 35 35 35 35 35 35 34 34 33 31 30 29 27 25 24 23 23 22 21 20 20 20 19 19 19 19 18 18 18 19 19 19 18 17 15 14 14 15 16 17 19 21 22 22 20 20
Wind_Direction
231 229 227 229 231 233 234 236 236 233 232 233 234 235 237 239 242 246 251 253 253 253 255 256 256 256 257 257 260 264 264 262 261 262 265 267 268 268 270 272 275 277 278 279 280 281 282 282 280 280 283 285 287 291 294 290 290 290 280 267 266 270 262 234 225 229 231 233 239 244 247 242 232 231 244 258 254 248 244 240 237 235 233 234 236 239 243
239 235 229 228 231 234 235 237 238 238 238 239 239 239 240 242 244 249 252 253 253 252 253 254 255 256 256 254 254 257 259 260 263 268 271 270 268 267 268 272 276 278 278 279 280 281 281 281 280 279 281 282 284 285 286 287 285 285 284 274 262 260 262 255 248 248 250 249 249 252 254 252 244 240 245 258 262 258 252 245 240 237 235 237 239 242 245
239 235 230 231 234 236 237 239 240 241 241 242 243 243 245 246 247 249 251 251 252 252 252 253 255 257 257 255 255 259 263 264 265 266 267 268 266 265 265 269 273 276 276 276 277 278 279 279 278 277 277 279 281 281 280 280 279 279 280 276 268 262 258 258 260 259 259 259 258 256 256 258 253 247 250 259 259 256 254 247 241 238 237 238 240 244 248
234 230 229 233 234 234 237 239 241 243 244 245 245 245 246 247 248 248 248 250 253 255 256 256 258 259 259 258 260 263 264 264 262 259 258 260 262 263 264 266 269 272 272 273 275 277 278 279 278 277 276 276 277 278 278 277 274 273 273 270 267 263 259 263 269 264 260 260 261 262 262 262 257 252 257 264 261 255 252 245 238 237 239 240 241 244 248
234 231 232 233 232 232 235 236 238 242 244 245 245 245 246 247 247 246 247 249 253 255 256 257 257 257 257 258 261 262 261 260 257 253 252 255 259 261 263 265 267 268 268 269 273 275 277 279 280 279 278 276 276 276 277 277 275 273 271 267 262 260 258 261 266 265 263 263 264 266 264 261 261 259 258 264 262 255 250 243 235 235 239 241 241 244 248
236 234 234 235 236 236 238 240 243 244 245 244 244 245 246 247 246 247 248 250 252 253 253 253 254 255 256 257 259 259 259 257 254 252 252 253 256 259 262 264 264 264 265 267 269 271 273 275 277 278 278 277 276 276 276 279 280 277 274 268 262 258 257 258 260 262 265 265 263 265 265 261 262 263 261 261 259 253 248 243 236 235 240 242 241 244 248
239 238 238 239 241 243 243 245 247 246 245 244 243 243 245 246 246 245 247 249 249 249 249 250 253 256 258 258 257 257 257 256 252 251 251 252 253 256 258 260 261 261 262 264 266 268 269 271 272 274 276 277 276 275 276 279 281 280 277 271 263 257 255 256 258 259 264 267 263 261 263 260 258 261 261 258 253 249 246 243 240 241 243 243 242 244 248
240 241 241 242 244 246 247 247 247 246 245 245 243 243 244 246 247 247 248 250 251 250 249 248 250 254 258 260 259 257 255 253 250 249 251 252 252 252 253 254 257 259 261 263 264 265 266 268 270 271 273 275 276 276 277 279 281 281 279 274 266 259 253 254 258 259 263 268 268 266 265 260 256 259 258 253 251 248 242 239 240 245 248 246 244 245 248
240 241 241 243 244 246 247 248 248 247 247 246 246 245 246 248 249 250 251 252 255 256 254 252 251 252 255 258 260 260 256 252 249 250 253 252 250 249 250 250 253 256 259 261 263 264 264 266 268 269 271 273 274 275 276 277 279 280 280 276 269 264 259 256 258 261 261 262 265 267 267 261 256 257 256 251 249 248 243 241 242 248 252 249 243 243 248
242 242 243 245 247 248 249 249 249 249 248 248 248 248 249 250 252 253 253 253 254 257 259 260 257 256 255 256 258 260 258 256 254 254 255 252 248 247 248 249 251 254 257 260 262 262 263 263 265 267 269 271 272 273 274 275 277 278 279 276 270 265 263 261 262 263 263 261 260 262 263 259 254 255 255 249 248 250 250 247 245 248 255 252 242 241 249
242 242 243 245 247 248 248 249 250 249 249 249 249 250 251 252 254 256 257 257 257 258 261 263 261 257 256 256 257 259 260 261 259 256 253 251 248 246 246 248 250 253 256 258 260 260 261 262 264 266 268 270 271 272 273 273 274 275 277 277 273 267 262 260 261 262 262 261 256 252 253 253 250 251 251 247 248 252 250 245 243 246 252 250 240 241 251
242 242 242 243 244 245 247 248 249 249 248 247 248 249 251 252 255 258 260 260 260 259 259 259 257 254 252 253 255 256 259 261 259 254 251 250 248 247 246 246 248 250 252 255 257 259 260 261 262 264 266 269 271 272 273 273 272 273 273 274 274 271 265 261 260 259 258 259 259 257 258 258 252 248 244 240 240 241 238 237 240 243 246 246 241 243 252
244 244 243 243 244 245 247 250 251 251 249 247 246 248 250 251 253 255 257 258 258 257 255 254 252 251 250 249 251 253 256 258 257 253 250 249 249 247 246 246 246 248 250 252 255 258 260 261 262 263 265 268 270 272 273 273 272 271 270 271 271 271 268 265 264 263 261 261 265 268 271 272 264 255 252 247 241 237 234 232 233 238 243 244 243 244 250
244 244 244 245 246 245 246 248 248 248 248 247 246 248 249 249 249 251 252 252 253 253 253 252 250 249 250 249 250 252 254 257 258 256 252 250 250 249 248 247 247 247 248 250 253 256 259 261 263 264 265 267 269 271 272 272 271 269 267 267 268 269 268 266 265 266 266 265 267 269 269 267 258 253 257 255 246 242 239 232 229 232 238 241 242 244 248
244 244 245 246 246 246 244 241 238 242 250 249 248 250 250 248 247 249 250 251 252 253 254 253 251 250 251 251 252 253 255 257 260 260 258 256 254 254 253 252 249 248 247 248 251 255 258 260 262 264 266 267 268 269 270 270 270 269 267 266 266 267 268 267 266 266 266 266 268 271 271 268 258 254 259 257 249 246 244 233 227 231 236 240 244 246 249
240 240 241 243 245 244 242 238 236 240 247 251 250 248 246 244 244 248 250 253 255 257 257 257 255 254 255 256 257 257 257 257 258 260 261 262 261 260 259 257 255 253 251 250 251 254 257 259 261 263 264 266 267 268 269 270 270 269 268 268 268 268 269 268 267 267 267 266 266 267 269 270 263 257 258 257 253 250 242 231 229 234 239 244 247 249 252
236 236 237 238 237 235 233 231 230 232 239 247 248 241 236 238 241 245 250 255 259 262 262 260 259 258 258 259 261 262 262 261 260 260 260 261 263 263 263 263 263 262 260 257 256 255 255 256 258 260 261 263 264 266 268 270 270 270 269 268 270 271 271 269 267 265 265 263 262 259 257 256 252 249 249 251 254 255 245 236 235 239 242 246 248 249 254
230 232 232 229 223 219 219 220 221 223 227 233 238 238 237 238 241 245 252 257 261 265 267 265 264 265 264 263 263 263 264 264 264 265 265 264 265 265 265 265 267 267 265 263 261 260 258 256 256 257 257 258 259 262 265 266 267 268 268 268 269 270 270 269 267 265 262 260 257 253 251 250 249 249 250 252 255 256 249 241 240 242 245 249 251 252 256
211 212 213 210 202 197 198 205 211 215 218 223 234 242 243 239 240 248 254 257 261 266 271 274 276 277 277 277 275 273 271 271 270 269 270 269 269 269 267 265 264 263 262 261 261 261 260 259 259 259 259 257 257 258 260 262 264 264 264 264 265 266 267 266 265 263 259 256 254 250 248 249 250 252 254 255 254 251 247 245 245 247 250 253 254 255 256
185 179 181 189 191 189 191 197 203 208 210 212 216 220 217 212 218 235 247 258 267 273 277 280 283 284 284 284 284 283 282 281 279 277 276 275 274 273 271 268 265 262 260 260 260 260 260 262 264 265 265 265 264 264 264 264 264 264 262 261 259 260 262 263 262 259 254 249 247 246 246 247 248 249 252 255 254 251 248 247 249 251 252 254 255 255 255
178 174 168 175 181 185 187 187 184 184 185 183 181 182 187 193 206 232 252 268 277 281 285 288 289 290 290 289 288 287 286 284 282 280 278 277 275 273 273 273 272 270 268 266 265 264 264 264 265 265 266 268 269 269 269 268 268 267 266 264 261 259 259 261 260 257 255 251 247 243 242 245 247 248 249 250 251 251 250 249 249 248 249 250 251 252 251
161 166 165 167 166 164 167 169 166 165 164 161 161 161 160 174 227 268 280 286 291 294 297 299 299 299 298 295 293 290 288 285 284 282 280 278 276 274 273 272 271 270 270 270 270 270 269 268 268 267 266 266 267 267 267 267 267 268 268 269 268 265 263 261 256 252 250 251 249 247 245 245 248 251 252 252 252 251 251 251 250 249 249 249 248 244 239
117 128 139 148 143 136 139 145 143 141 138 129 127 127 118 129 295 305 303 307 311 311 313 317 319 319 317 313 307 301 295 289 285 283 281 279 277 275 273 271 269 267 266 265 266 268 269 270 270 270 270 268 267 266 265 264 264 265 267 269 268 266 264 262 257 251 247 244 242 241 241 241 241 244 249 251 252 251 250 250 252 254 253 252 247 240 233
105 110 115 120 117 111 113 116 114 114 115 114 115 112 84 353 326 323 320 321 322 322 325 329 331 332 331 328 323 317 310 303 297 291 286 282 279 276 274 272 270 267 265 263 262 263 264 265 266 268 270 270 270 269 268 266 263 262 263 265 265 264 261 259 257 254 251 247 242 239 239 238 238 238 240 241 242 243 242 244 247 250 251 250 247 242 238
102 100 99 100 100 100 102 103 102 102 99 87 54 5 346 332 327 326 324 323 322 322 325 327 328 330 332 331 328 324 319 313 307 301 296 291 287 283 279 276 273 270 267 265 263 261 261 261 261 262 263 265 267 268 268 268 266 265 263 262 263 262 261 258 256 254 252 250 248 246 246 245 244 243 243 242 241 240 240 239 240 243 244 246 247 246 246
101 99 97 96 97 98 97 93 85 73 46 6 342 339 337 332 329 327 323 321 321 322 323 324 326 328 330 329 329 328 325 320 316 312 308 304 300 295 291 286 282 278 274 270 267 264 261 260 259 259 259 259 260 261 262 264 264 265 264 263 262 261 260 258 255 254 253 251 249 249 249 250 249 248 248 248 247 247 247 246 245 246 246 245 244 245 247
103 104 103 100 99 100 103 102 91 52 1 346 342 340 335 328 324 323 324 326 329 331 331 330 330 331 332 333 334 334 333 330 326 322 318 315 312 309 305 301 296 292 287 282 277 272 267 263 259 258 258 259 259 258 258 258 258 259 261 261 261 259 258 255 253 252 252 251 250 249 249 250 251 251 251 252 252 253 253 253 253 253 253 251 249 248 249
103 103 101 100 102 106 110 105 75 32 9 354 341 328 319 318 325 334 340 342 342 341 339 338 337 337 337 339 340 339 338 335 330 326 322 320 317 314 312 309 306 302 299 294 290 286 281 274 267 261 257 257 258 259 259 258 256 256 256 256 256 256 255 254 253 252 251 251 251 251 250 250 251 252 252 252 253 255 257 258 258 257 257 257 256 255 254
89 88 86 84 82 74 60 42 23 8 356 344 330 324 336 347 349 349 350 348 345 344 342 340 339 339 340 341 341 340 338 336 332 328 325 322 319 316 314 312 310 308 305 302 299 296 292 287 281 274 265 258 256 258 259 259 258 257 256 255 254 254 254 253 253 253 252 252 251 252 252 251 251 252 252 252 252 253 254 256 257 258 258 258 257 257 257
72 72 67 55 46 40 31 19 3 351 350 352 354 355 356 353 349 347 345 342 340 339 339 338 338 338 339 339 339 339 338 336 334 332 330 327 324 322 320 318 316 313 311 308 306 304 300 295 290 286 280 271 262 258 258 259 259 258 257 256 255 255 254 254 254 254 255 254 254 254 253 253 253 252 252 253 253 253 253 253 255 256 257 257 258 258 259
46 41 37 33 27 18 9 1 354 354 357 1 2 359 353 349 347 346 343 340 338 338 339 338 336 336 337 337 337 337 336 336 335 334 333 331 329 327 326 325 322 318 316 314 312 309 306 303 298 293 288 284 277 268 262 260 260 259 258 257 256 256 255 254 254 254 255 255 256 256 255 255 255 255 255 255 255 255 255 255 256 256 256 257 258 260 261
28 15 14 16 8 352 341 343 354 2 4 3 3 1 356 353 351 349 347 343 341 340 340 338 337 336 336 336 335 335 335 335 335 335 333 332 331 330 330 329 327 324 321 318 316 313 311 308 306 302 297 291 285 279 272 266 264 262 260 259 258 257 256 255 254 254 254 254 255 255 256 256 256 257 257 257 257 257 257 257 258 259 259 258 259 260 261
17 3 355 350 337 318 314 341 6 14 11 5 359 357 357 357 354 352 351 348 344 341 341 340 338 337 336 335 335 335 335 336 336 335 333 332 332 332 332 331 329 328 326 322 319 317 316 314 312 311 307 300 294 287 280 274 270 268 266 264 262 260 258 256 255 254 254 253 252 252 253 254 255 255 256 256 257 258 258 258 258 258 258 258 259 259 260
343 336 323 314 311 314 344 15 21 20 17 10 3 358 358 359 356 354 353 350 347 344 343 341 339 338 337 335 335 335 335 336 336 335 334 333 333 334 334 332 329 329 330 327 322 320 320 320 320 319 316 311 304 296 288 282 277 273 271 269 267 264 261 259 258 256 255 254 254 252 252 252 252 252 253 253 254 255 256 257 256 255 254 254 255 256 257
307 313 316 320 330 348 9 21 25 22 19 14 8 2 358 357 355 354 352 351 349 346 343 341 340 339 337 337 336 336 336 336 335 335 335 334 334 335 335 332 329 331 332 329 325 324 324 325 325 325 324 321 316 308 300 292 285 280 277 275 272 269 266 264 262 260 259 257 256 255 254 254 253 252 251 251 251 251 251 252 253 253 253 252 251 251 252
300 313 325 333 346 3 14 21 23 21 17 14 9 3 358 355 353 352 351 351 349 347 345 343 341 339 338 338 337 337 337 336 335 334 335 335 335 336 336 332 331 332 333 329 326 325 325 327 328 329 330 329 326 320 312 303 295 288 283 280 277 276 274 270 267 266 264 262 261 259 258 257 256 255 253 252 251 250 249 249 249 250 251 252 251 251 250
302 316 325 337 358 14 19 20 21 21 18 13 8 3 359 355 353 352 351 351 350 348 346 343 341 340 340 339 338 338 337 336 334 334 335 335 336 337 336 333 332 333 332 329 325 323 324 328 330 331 331 331 329 325 319 312 304 297 290 285 282 280 278 274 272 270 270 270 268 266 264 263 262 260 258 256 254 252 250 249 249 249 250 251 251 251 251
302 312 319 336 4 20 24 24 24 23 20 14 8 3 359 356 353 352 351 351 350 349 346 344 343 342 341 340 339 339 337 335 334 334 335 336 336 337 336 334 332 333 332 328 323 321 324 328 329 330 331 333 331 329 325 320 314 306 299 292 287 283 280 277 274 273 272 271 271 271 270 269 267 266 264 261 259 256 255 253 252 251 251 251 251 252 253
293 301 311 339 12 27 32 31 27 23 18 11 5 360 357 354 353 352 352 352 351 349 347 346 345 344 342 341 340 338 336 334 334 334 335 335 336 337 336 334 334 335 334 328 322 320 322 324 325 327 330 332 333 333 333 330 325 318 310 301 295 289 284 280 276 274 273 273 272 271 270 269 269 269 268 266 263 261 259 258 257 255 254 254 254 254 254
278 280 303 20 40 41 36 31 25 18 11 4 359 355 353 353 352 353 353 353 351 350 349 349 348 346 344 341 339 337 336 334 334 333 333 334 335 336 336 334 335 336 335 330 324 321 319 318 319 322 325 328 330 334 336 335 332 328 321 313 305 298 292 286 281 278 276 276 275 273 271 269 268 268 268 268 267 265 262 260 259 258 256 255 255 255 255
265 262 46 53 47 40 32 23 16 8 1 355 352 350 350 351 352 352 353 353 351 350 350 350 350 349 346 342 340 338 336 335 334 333 332 333 335 335 335 334 336 337 336 331 327 324 320 317 317 319 321 323 325 327 329 331 332 331 328 324 318 310 302 295 289 285 283 282 280 278 275 272 270 269 268 267 267 266 264 261 258 257 255 254 253 253 253
229 135 68 51 39 30 20 11 4 357 351 348 346 345 346 349 350 351 352 352 350 350 350 349 349 348 346 343 342 340 338 336 334 333 332 333 333 334 334 335 336 336 334 332 330 326 321 317 316 316 316 316 315 317 320 323 325 327 328 328 327 323 317 310 301 293 289 287 285 282 279 276 273 270 268 265 264 263 262 260 258 256 255 253 251 250 250
171 114 68 40 22 10 2 356 352 348 344 341 341 341 344 347 349 350 350 348 347 347 348 347 346 346 344 342 341 340 338 336 333 332 331 332 332 332 333 334 335 334 334 332 330 327 321 317 315 316 316 314 312 310 310 311 313 316 320 323 325 327 327 324 318 309 301 295 291 286 281 277 274 271 268 264 262 260 259 258 257 256 255 254 253 251 250
159 103 23 358 350 346 344 343 342 340 338 337 337 339 342 346 347 346 346 344 344 344 344 344 343 343 342 340 339 338 337 335 332 331 330 330 330 330 331 332 332 333 333 332 329 326 321 317 314 314 316 318 317 314 309 303 300 301 306 310 314 317 320 323 323 320 315 310 305 299 291 284 277 273 270 267 263 260 257 256 255 254 254 254 253 252 251
224 327 331 330 330 330 330 332 334 333 332 333 334 336 339 342 342 342 341 341 341 341 341 340 341 341 340 338 337 336 335 334 332 330 329 329 328 329 330 330 330 331 330 329 327 326 323 319 314 310 308 310 313 314 311 304 296 291 293 297 301 304 308 311 314 317 319 318 315 311 305 296 285 278 273 270 265 261 257 254 252 252 252 251 250 249 248
302 314 319 320 320 319 320 323 326 326 327 330 334 335 336 337 338 339 339 339 338 337 337 337 338 339 338 337 336 335 334 332 331 329 328 328 327 327 327 327 327 328 327 327 326 325 322 318 313 309 306 306 309 310 310 305 296 288 286 288 291 294 297 300 303 306 312 315 316 315 312 305 294 285 278 272 267 262 257 253 249 247 247 247 245 243 241
303 309 312 312 311 312 315 318 320 322 325 330 333 333 334 334 336 337 337 336 335 334 334 335 336 336 336 335 334 333 332 332 330 329 327 326 325 325 325 325 325 325 325 326 325 324 321 317 314 311 310 311 312 311 310 307 300 291 286 284 285 287 290 293 295 298 301 307 312 313 312 308 302 293 285 278 272 265 259 253 248 243 241 241 241 240 237
300 305 306 306 305 306 309 313 316 319 323 327 330 331 332 333 334 335 335 334 332 332 333 334 334 334 334 333 332 331 331 331 330 328 326 325 324 323 323 323 323 324 324 324 323 322 321 319 318 316 315 315 313 311 309 308 305 298 291 286 285 285 286 287 290 292 295 298 303 307 309 308 304 297 288 282 277 270 263 256 249 243 238 238 240 241 237
300 303 303 302 302 302 304 307 312 316 319 324 327 329 331 332 332 332 333 333 332 332 333 333 333 332 332 331 330 330 329 329 328 327 325 324 323 322 322 322 322 323 322 322 321 321 320 320 319 319 317 315 313 310 306 304 304 302 296 289 285 284 283 282 284 286 289 292 296 300 304 306 305 299 289 282 277 273 267 260 252 245 239 237 241 243 241
301 303 301 298 298 298 301 305 310 315 319 322 325 327 329 330 330 330 332 333 333 332 332 331 330 330 330 329 329 328 328 327 326 325 324 323 321 320 320 321 321 321 321 321 320 320 319 319 319 319 317 315 313 310 306 302 300 300 296 291 286 282 280 279 279 281 284 288 290 293 298 302 303 300 293 284 278 275 270 263 256 247 240 238 242 246 244
301 300 297 294 294 294 297 302 308 312 315 318 321 323 327 329 329 328 330 331 332 331 330 329 329 329 328 328 327 327 327 326 325 324 323 321 320 319 319 319 319 319 320 319 318 318 318 317 317 318 317 315 313 310 306 302 300 299 296 291 286 282 279 277 277 278 281 283 285 287 292 297 299 298 295 289 282 276 271 265 259 250 242 239 242 246 246
300 298 294 291 289 289 293 300 305 308 311 315 319 322 325 327 327 327 327 329 330 330 329 328 327 327 326 326 326 326 326 325 324 323 322 321 320 319 318 318 318 317 317 317 317 317 317 317 317 316 315 314 312 310 305 301 300 300 297 292 287 281 278 277 277 277 277 277 278 282 287 292 294 294 294 291 286 279 272 265 260 253 246 242 244 249 248
Height
5691 5693 5695 5696 5698 5699 5700 5701 5702 5703 5704 5705 5706 5707 5708 5709 5710 5711 5713 5714 5715 5716 5717 5718 5719 5720 5721 5722 5722 5723 5723 5723 5724 5724 5725 5725 5725 5725 5725 5724 5724 5724 5723 5723 5722 5722 5722 5722 5721 5720 5720 5720 5719 5719 5719 5719 5719 5719 5720 5721 5721 5723 5724 5725 5726 5727 5728 5729 5731 5732 5734 5734 5735 5735 5735 5736 5735 5735 5736 5738 5741 5743 5744 5744 5744 5745 5746
5688 5690 5692 5693 5695 5696 5697 5697 5698 5700 5701 5702 5703 5704 5705 5706 5707 5708 5710 5710 5712 5713 5714 5714 5716 5717 5718 5719 5720 5720 5720 5721 5721 5721 5722 5722 5722 5722 5722 5721 5721 5721 5721 5720 5720 5719 5719 5719 5719 5718 5718 5718 5717 5717 5717 5717 5718 5718 5719 5719 5720 5720 5721 5722 5724 5725 5726 5727 5728 5729 5730 5731 5732 5731 5731 5732 5731 5731 5733 5735 5737 5739 5740 5740 5741 5742 5743
5684 5686 5689 5690 5691 5692 5693 5693 5694 5696 5698 5699 5700 5701 5702 5703 5703 5705 5706 5706 5707 5709 5710 5711 5712 5713 5714 5715 5716 5717 5718 5718 5717 5717 5718 5718 5718 5719 5719 5718 5718 5718 5718 5717 5717 5717 5717 5717 5716 5716 5716 5715 5715 5715 5716 5716 5717 5717 5717 5718 5718 5718 5718 5720 5721 5722 5723 5724 5724 5726 5727 5727 5727 5727 5726 5727 5727 5728 5729 5731 5734 5735 5736 5736 5738 5739 5740
5681 5683 5685 5685 5687 5688 5689 5690 5691 5692 5694 5695 5697 5698 5699 5700 5700 5701 5702 5703 5704 5706 5707 5708 5709 5709 5710 5711 5712 5713 5714 5714 5714 5714 5714 5714 5715 5715 5715 5715 5715 5715 5714 5714 5714 5714 5714 5714 5714 5714 5713 5713 5713 5713 5713 5714 5715 5715 5716 5716 5716 5716 5716 5717 5719 5719 5720 5720 5720 5722 5723 5724 5724 5723 5723 5723 5724 5724 5726 5728 5730 5732 5732 5732 5734 5736 5737
5678 5680 5681 5682 5684 5684 5685 5686 5688 5689 5691 5692 5693 5695 5696 5697 5697 5697 5698 5699 5700 5702 5703 5704 5704 5705 5706 5707 5708 5709 5710 5710 5710 5710 5710 5711 5711 5711 5711 5711 5711 5711 5711 5711 5710 5710 5710 5711 5711 5711 5711 5711 5711 5711 5711 5712 5712 5713 5713 5714 5714 5714 5714 5715 5716 5716 5717 5717 5717 5719 5720 5720 5720 5720 5720 5721 5721 5721 5723 5724 5726 5728 5728 5728 5731 5732 5733
5676 5677 5678 5679 5680 5681 5682 5684 5686 5687 5688 5689 5690 5691 5692 5693 5693 5694 5695 5696 5697 5698 5699 5700 5700 5701 5702 5703 5704 5705 5706 5706 5707 5707 5707 5707 5707 5708 5708 5707 5707 5707 5707 5707 5707 5707 5707 5707 5707 5708 5708 5708 5708 5708 5708 5709 5710 5710 5711 5711 5712 5712 5712 5712 5713 5714 5713 5714 5715 5716 5716 5716 5717 5717 5717 5719 5719 5718 5719 5721 5722 5723 5724 5725 5727 5728 5729
5673 5674 5675 5676 5677 5678 5680 5681 5683 5684 5685 5686 5687 5688 5688 5689 5690 5691 5692 5693 5694 5695 5696 5696 5697 5697 5698 5699 5700 5701 5702 5702 5702 5703 5703 5704 5704 5704 5704 5704 5704 5704 5704 5704 5704 5704 5704 5704 5704 5704 5705 5705 5705 5705 5706 5706 5706 5707 5708 5709 5709 5709 5709 5710 5710 5711 5711 5711 5711 5712 5712 5713 5714 5715 5715 5717 5717 5716 5715 5717 5718 5719 5719 5721 5723 5724 5725
5670 5671 5672 5673 5674 5675 5677 5678 5679 5680 5681 5682 5684 5685 5685 5686 5687 5688 5689 5690 5691 5692 5693 5694 5694 5694 5695 5695 5696 5697 5698 5698 5698 5699 5699 5700 5701 5701 5701 5701 5701 5700 5700 5700 5700 5700 5700 5700 5701 5701 5701 5701 5702 5702 5703 5703 5703 5704 5704 5705 5706 5706 5706 5707 5707 5708 5708 5708 5708 5708 5709 5709 5710 5712 5713 5714 5714 5712 5711 5712 5714 5714 5715 5717 5719 5720 5721
5667 5668 5669 5670 5671 5672 5674 5675 5676 5677 5678 5679 5680 5681 5682 5683 5684 5685 5686 5687 5688 5689 5689 5690 5691 5691 5691 5692 5692 5693 5693 5694 5694 5695 5695 5696 5697 5697 5697 5697 5697 5697 5697 5696 5696 5697 5697 5697 5697 5697 5698 5698 5698 5699 5699 5700 5700 5700 5701 5702 5702 5703 5703 5703 5704 5704 5705 5705 5704 5704 5705 5705 5707 5708 5709 5710 5710 5708 5708 5708 5709 5710 5712 5714 5715 5716 5717
5663 5665 5666 5667 5668 5669 5671 5672 5673 5674 5675 5676 5677 5678 5679 5680 5681 5682 5683 5684 5685 5686 5686 5687 5687 5688 5688 5688 5689 5689 5689 5689 5690 5691 5691 5692 5692 5693 5693 5693 5693 5693 5693 5693 5693 5693 5693 5693 5693 5694 5694 5694 5695 5695 5696 5696 5697 5697 5697 5698 5699 5700 5700 5700 5700 5701 5701 5701 5701 5701 5701 5702 5703 5704 5705 5706 5705 5705 5706 5706 5706 5706 5708 5710 5711 5712 5713
5660 5662 5663 5664 5665 5666 5667 5668 5669 5671 5672 5673 5674 5674 5675 5677 5678 5679 5680 5681 5682 5682 5683 5684 5684 5684 5685 5685 5685 5685 5685 5685 5686 5686 5687 5687 5688 5688 5689 5689 5690 5690 5690 5690 5690 5689 5689 5690 5690 5690 5690 5691 5691 5691 5692 5693 5693 5694 5694 5695 5695 5696 5697 5697 5697 5697 5698 5698 5697 5698 5698 5698 5699 5700 5701 5702 5702 5702 5703 5703 5702 5702 5704 5706 5707 5707 5709
5657 5658 5660 5661 5662 5663 5664 5665 5666 5667 5669 5670 5671 5671 5673 5674 5675 5676 5676 5677 5678 5679 5680 5680 5680 5681 5681 5681 5681 5682 5682 5682 5682 5682 5682 5682 5683 5684 5684 5685 5685 5685 5686 5686 5685 5686 5686 5686 5686 5686 5687 5687 5687 5687 5688 5689 5690 5690 5691 5691 5691 5692 5693 5693 5693 5694 5694 5694 5693 5694 5694 5695 5695 5696 5697 5698 5698 5697 5699 5700 5699 5698 5699 5701 5702 5703 5705
5654 5655 5657 5658 5659 5660 5662 5663 5664 5665 5666 5667 5668 5669 5670 5671 5672 5673 5674 5674 5675 5676 5676 5677 5677 5677 5677 5678 5678 5678 5678 5678 5678 5678 5678 5678 5678 5679 5679 5680 5680 5681 5681 5681 5681 5682 5682 5683 5683 5683 5683 5683 5683 5684 5684 5685 5686 5686 5687 5687 5688 5688 5688 5689 5689 5689 5690 5690 5690 5690 5691 5691 5691 5691 5692 5693 5693 5693 5695 5695 5694 5693 5695 5697 5698 5699 5701
5652 5653 5654 5655 5656 5658 5659 5661 5662 5662 5663 5664 5665 5666 5667 5668 5669 5670 5671 5671 5671 5672 5673 5673 5674 5674 5674 5674 5675 5674 5674 5674 5674 5674 5674 5674 5674 5674 5675 5676 5676 5677 5677 5677 5678 5678 5678 5679 5679 5679 5679 5680 5680 5681 5681 5681 5682 5682 5683 5683 5684 5684 5684 5685 5685 5685 5686 5687 5687 5687 5688 5689 5689 5688 5688 5688 5689 5689 5690 5690 5689 5689 5690 5692 5694 5695 5696
5649 5650 5652 5653 5654 5655 5657 5658 5660 5661 5661 5662 5663 5663 5664 5665 5666 5667 5668 5668 5669 5669 5670 5670 5671 5671 5671 5671 5671 5671 5671 5671 5671 5671 5671 5671 5670 5671 5671 5672 5672 5672 5673 5673 5674 5674 5674 5674 5675 5675 5675 5676 5677 5677 5677 5677 5678 5678 5679 5679 5680 5680 5681 5681 5682 5682 5682 5683 5683 5683 5684 5685 5686 5685 5684 5685 5686 5686 5686 5686 5686 5687 5687 5688 5690 5692 5693
5647 5648 5649 5650 5652 5653 5655 5656 5657 5659 5660 5660 5661 5662 5662 5663 5664 5664 5665 5665 5666 5667 5667 5667 5668 5668 5668 5668 5668 5668 5668 5668 5668 5668 5668 5668 5668 5668 5668 5668 5667 5668 5668 5669 5669 5670 5670 5670 5671 5671 5671 5671 5672 5673 5673 5673 5674 5674 5675 5675 5676 5677 5677 5678 5678 5678 5679 5679 5680 5680 5680 5681 5682 5682 5682 5682 5683 5684 5684 5683 5684 5684 5685 5686 5687 5688 5689
5644 5646 5647 5648 5650 5651 5653 5654 5655 5657 5658 5659 5660 5661 5661 5661 5661 5662 5663 5663 5664 5665 5665 5665 5665 5665 5665 5666 5666 5666 5666 5665 5665 5665 5665 5665 5664 5664 5664 5664 5664 5664 5665 5665 5665 5665 5665 5666 5666 5666 5666 5667 5668 5668 5669 5669 5669 5670 5671 5671 5672 5672 5673 5673 5674 5674 5675 5675 5676 5677 5678 5679 5679 5680 5680 5680 5680 5681 5681 5681 5681 5682 5683 5683 5683 5684 5685
5643 5644 5645 5647 5648 5650 5651 5652 5653 5655 5656 5658 5659 5659 5659 5659 5660 5660 5661 5662 5662 5663 5663 5663 5663 5663 5663 5663 5663 5663 5663 5663 5662 5662 5661 5661 5661 5661 5661 5660 5660 5661 5661 5661 5661 5660 5661 5661 5661 5661 5662 5662 5663 5664 5664 5664 5664 5665 5666 5667 5668 5668 5669 5669 5670 5670 5671 5671 5672 5673 5674 5675 5675 5676 5676 5676 5676 5676 5677 5678 5678 5678 5678 5678 5678 5679 5679
5642 5643 5644 5645 5647 5648 5650 5651 5652 5653 5655 5656 5657 5657 5658 5658 5658 5659 5660 5660 5661 5661 5661 5661 5661 5661 5661 5660 5660 5660 5660 5660 5659 5659 5658 5658 5657 5657 5657 5657 5657 5657 5657 5657 5657 5657 5657 5657 5657 5657 5657 5657 5658 5659 5659 5660 5660 5661 5662 5663 5664 5664 5665 5665 5665 5666 5666 5667 5668 5669 5669 5670 5670 5671 5672 5672 5672 5672 5673 5673 5674 5674 5673 5673 5673 5673 5673
5641 5642 5643 5644 5645 5647 5649 5650 5651 5653 5654 5655 5655 5656 5657 5657 5657 5658 5658 5659 5659 5660 5660 5659 5659 5659 5659 5658 5658 5657 5657 5657 5656 5656 5655 5655 5654 5654 5653 5653 5653 5653 5653 5653 5653 5653 5654 5654 5654 5653 5653 5653 5653 5654 5654 5655 5656 5657 5657 5658 5659 5660 5660 5660 5661 5661 5662 5662 5663 5664 5664 5665 5666 5666 5667 5668 5668 5668 5668 5669 5669 5668 5668 5667 5667 5667 5668
5641 5642 5643 5644 5645 5646 5648 5650 5651 5652 5653 5654 5655 5655 5656 5656 5656 5657 5657 5658 5658 5658 5658 5658 5657 5657 5656 5656 5655 5655 5654 5654 5653 5653 5652 5652 5651 5651 5650 5650 5650 5650 5649 5649 5648 5649 5650 5650 5649 5649 5649 5649 5649 5649 5649 5650 5651 5652 5652 5653 5654 5655 5656 5655 5655 5656 5657 5657 5658 5659 5660 5661 5661 5662 5663 5663 5664 5664 5664 5664 5664 5663 5663 5663 5662 5662 5663
5642 5643 5643 5644 5646 5647 5649 5650 5651 5652 5653 5653 5654 5655 5655 5656 5656 5656 5656 5657 5657 5657 5656 5656 5655 5655 5654 5653 5652 5651 5651 5650 5650 5649 5649 5648 5648 5647 5647 5647 5646 5646 5645 5644 5644 5644 5645 5645 5645 5645 5645 5645 5644 5644 5645 5645 5646 5647 5647 5648 5649 5650 5650 5650 5650 5650 5651 5652 5653 5655 5655 5656 5657 5658 5658 5658 5659 5659 5659 5659 5659 5659 5658 5658 5658 5658 5659
5643 5644 5645 5646 5647 5648 5649 5650 5651 5652 5653 5653 5654 5654 5655 5655 5655 5655 5655 5655 5655 5655 5655 5654 5653 5652 5651 5650 5649 5648 5647 5646 5646 5645 5644 5644 5643 5643 5643 5642 5642 5642 5641 5640 5640 5640 5640 5640 5640 5639 5639 5639 5639 5639 5639 5640 5641 5641 5642 5643 5644 5644 5645 5645 5646 5646 5647 5648 5649 5650 5651 5652 5653 5653 5653 5654 5654 5655 5655 5655 5655 5655 5655 5655 5655 5655 5656
5645 5646 5647 5648 5648 5649 5650 5651 5652 5652 5653 5653 5654 5654 5654 5655 5655 5655 5654 5654 5654 5653 5652 5651 5650 5649 5648 5647 5646 5644 5643 5643 5642 5641 5640 5639 5638 5638 5638 5637 5636 5636 5635 5635 5635 5635 5635 5635 5635 5634 5634 5634 5634 5633 5633 5634 5635 5636 5637 5637 5638 5639 5639 5640 5641 5641 5642 5643 5643 5644 5645 5646 5647 5647 5648 5649 5649 5650 5650 5650 5651 5651 5651 5651 5652 5652 5653
5647 5648 5648 5648 5649 5650 5651 5652 5652 5653 5653 5653 5653 5653 5654 5654 5653 5653 5653 5653 5652 5651 5650 5649 5648 5647 5646 5645 5643 5642 5640 5639 5638 5637 5636 5635 5634 5633 5632 5632 5631 5630 5630 5629 5629 5629 5629 5630 5630 5629 5629 5628 5628 5628 5628 5628 5629 5630 5631 5632 5632 5633 5634 5634 5635 5636 5637 5637 5638 5639 5640 5641 5641 5641 5642 5643 5643 5644 5644 5645 5645 5646 5646 5647 5647 5648 5648
5648 5649 5649 5650 5650 5651 5652 5652 5652 5653 5653 5653 5653 5653 5653 5652 5652 5652 5652 5651 5650 5650 5649 5648 5647 5646 5644 5643 5641 5639 5638 5636 5635 5633 5632 5631 5630 5629 5628 5626 5625 5624 5624 5623 5623 5623 5623 5624 5624 5624 5623 5623 5623 5622 5622 5623 5623 5623 5624 5625 5626 5627 5628 5629 5629 5630 5631 5632 5632 5633 5634 5634 5635 5636 5636 5637 5637 5637 5638 5638 5639 5640 5640 5641 5642 5643 5644
5650 5650 5651 5651 5652 5652 5653 5653 5653 5653 5653 5653 5652 5652 5652 5652 5652 5651 5651 5650 5649 5648 5647 5646 5644 5643 5642 5640 5638 5636 5635 5633 5631 5630 5628 5627 5626 5624 5623 5622 5621 5619 5618 5617 5617 5617 5617 5617 5617 5618 5618 5618 5617 5617 5617 5617 5617 5617 5617 5618 5619 5621 5622 5623 5623 5624 5624 5625 5626 5627 5628 5628 5629 5630 5630 5630 5631 5631 5632 5632 5633 5633 5634 5636 5637 5638 5638
5651 5651 5652 5652 5652 5653 5653 5653 5652 5652 5652 5652 5652 5652 5652 5652 5651 5650 5650 5648 5647 5646 5645 5643 5642 5641 5639 5637 5635 5634 5632 5631 5629 5628 5626 5624 5623 5621 5620 5619 5617 5616 5614 5612 5611 5611 5610 5610 5610 5611 5611 5612 5611 5611 5610 5611 5611 5611 5611 5611 5612 5614 5615 5617 5617 5617 5618 5618 5619 5620 5622 5622 5623 5623 5623 5624 5625 5625 5626 5626 5626 5627 5629 5631 5632 5632 5632
5651 5651 5651 5652 5652 5652 5651 5651 5651 5651 5651 5651 5651 5651 5651 5651 5650 5649 5648 5647 5646 5644 5643 5642 5640 5639 5637 5635 5634 5632 5631 5629 5628 5626 5624 5623 5621 5619 5617 5616 5614 5612 5611 5609 5608 5606 5605 5604 5603 5603 5604 5605 5605 5604 5604 5604 5604 5604 5604 5605 5606 5607 5608 5609 5610 5611 5612 5612 5613 5614 5614 5615 5616 5617 5617 5617 5618 5619 5620 5621 5621 5622 5624 5625 5626 5625 5625
5650 5651 5651 5651 5651 5650 5650 5650 5650 5650 5650 5650 5650 5650 5649 5649 5648 5647 5646 5645 5644 5643 5642 5640 5638 5637 5635 5634 5632 5630 5629 5627 5625 5624 5622 5620 5618 5616 5615 5613 5611 5609 5607 5606 5604 5602 5600 5598 5597 5597 5597 5597 5597 5597 5597 5596 5596 5596 5596 5598 5599 5600 5601 5602 5603 5604 5605 5605 5606 5607 5607 5608 5609 5610 5611 5611 5612 5613 5614 5615 5615 5616 5618 5619 5619 5619 5619
5650 5650 5650 5650 5650 5650 5650 5650 5650 5649 5649 5649 5648 5648 5647 5647 5646 5645 5644 5643 5642 5641 5640 5638 5637 5635 5634 5632 5630 5628 5627 5625 5623 5621 5619 5618 5616 5614 5612 5610 5608 5606 5604 5602 5601 5598 5596 5594 5593 5591 5591 5591 5591 5591 5590 5589 5588 5588 5589 5591 5592 5592 5593 5594 5595 5596 5598 5598 5599 5599 5600 5600 5601 5603 5604 5605 5606 5606 5608 5609 5609 5610 5611 5613 5613 5613 5612
5650 5649 5649 5649 5649 5649 5649 5649 5649 5648 5648 5647 5647 5647 5646 5645 5644 5643 5642 5641 5640 5639 5638 5636 5635 5633 5632 5630 5628 5627 5625 5623 5621 5619 5617 5615 5613 5611 5609 5607 5605 5603 5601 5599 5597 5595 5593 5591 5589 5587 5586 5585 5585 5585 5584 5583 5582 5582 5583 5584 5584 5584 5585 5587 5588 5589 5590 5591 5591 5592 5592 5593 5594 5596 5597 5598 5599 5600 5601 5603 5603 5603 5605 5606 5607 5607 5607
5650 5649 5649 5649 5649 5649 5649 5648 5648 5647 5647 5646 5646 5645 5645 5644 5643 5642 5641 5640 5638 5637 5636 5635 5633 5632 5630 5629 5627 5625 5623 5621 5619 5617 5615 5613 5611 5609 5607 5604 5602 5600 5598 5596 5594 5591 5589 5588 5586 5584 5582 5581 5580 5579 5579 5577 5577 5577 5577 5577 5577 5577 5578 5579 5581 5582 5582 5583 5584 5585 5586 5586 5587 5588 5590 5592 5593 5594 5595 5597 5597 5597 5598 5599 5600 5600 5600
5649 5649 5649 5649 5648 5648 5648 5647 5646 5646 5646 5645 5644 5644 5643 5642 5642 5641 5640 5639 5637 5636 5634 5633 5632 5630 5629 5627 5625 5623 5621 5619 5617 5615 5613 5611 5609 5607 5604 5602 5599 5597 5595 5593 5591 5589 5587 5585 5583 5581 5579 5577 5576 5575 5574 5573 5573 5572 5572 5572 5571 5571 5572 5573 5574 5574 5575 5575 5576 5578 5579 5579 5580 5581 5583 5585 5586 5588 5589 5590 5590 5591 5591 5592 5593 5594 5594
5648 5648 5648 5647 5647 5647 5646 5646 5645 5645 5645 5644 5643 5643 5642 5641 5641 5640 5639 5637 5636 5635 5633 5632 5630 5629 5627 5625 5624 5622 5620 5618 5615 5613 5611 5609 5607 5605 5602 5599 5597 5595 5593 5591 5588 5586 5584 5582 5580 5579 5577 5575 5573 5571 5570 5570 5569 5568 5568 5567 5567 5566 5568 5569 5569 5569 5569 5569 5570 5571 5571 5572 5573 5574 5576 5577 5579 5581 5582 5583 5583 5583 5584 5586 5587 5588 5588
5647 5647 5646 5646 5646 5645 5645 5645 5644 5644 5644 5643 5643 5642 5641 5640 5639 5638 5638 5636 5635 5634 5632 5631 5629 5627 5626 5624 5622 5620 5618 5616 5613 5611 5609 5607 5605 5603 5600 5597 5594 5592 5590 5588 5586 5584 5582 5580 5578 5576 5574 5572 5570 5569 5568 5567 5566 5565 5564 5563 5563 5563 5564 5565 5565 5564 5564 5564 5564 5564 5565 5566 5567 5568 5569 5570 5571 5573 5574 5575 5576 5576 5577 5579 5580 5581 5582
5645 5645 5645 5645 5644 5644 5644 5644 5643 5643 5642 5642 5641 5641 5640 5639 5638 5637 5636 5635 5634 5633 5631 5630 5628 5626 5624 5622 5620 5618 5616 5614 5611 5609 5607 5605 5603 5600 5598 5595 5592 5590 5588 5586 5584 5582 5580 5578 5576 5574 5572 5571 5569 5567 5566 5564 5563 5562 5561 5561 5560 5560 5561 5561 5561 5561 5560 5560 5559 5559 5560 5560 5561 5561 5562 5563 5564 5566 5567 5568 5569 5570 5571 5572 5573 5573 5574
5644 5644 5644 5644 5644 5643 5643 5643 5642 5642 5641 5641 5640 5640 5639 5638 5637 5636 5635 5634 5633 5632 5630 5629 5627 5625 5623 5621 5619 5617 5614 5612 5610 5607 5605 5603 5601 5598 5596 5593 5590 5588 5586 5584 5582 5580 5578 5576 5574 5572 5571 5569 5567 5565 5564 5563 5561 5560 5559 5558 5558 5558 5558 5558 5558 5558 5557 5556 5556 5556 5556 5556 5556 5556 5557 5557 5558 5559 5560 5561 5562 5563 5564 5565 5566 5567 5568
5643 5643 5643 5643 5643 5643 5642 5642 5641 5641 5640 5640 5639 5639 5638 5637 5636 5635 5634 5633 5632 5630 5629 5627 5625 5624 5621 5619 5617 5615 5613 5610 5608 5605 5603 5601 5599 5596 5594 5591 5589 5586 5584 5582 5580 5578 5576 5575 5573 5571 5569 5568 5566 5564 5562 5561 5560 5558 5557 5556 5556 5555 5555 5555 5555 5555 5554 5553 5553 5552 5552 5552 5552 5552 5552 5553 5553 5554 5555 5555 5556 5557 5558 5559 5560 5561 5562
5642 5643 5643 5642 5642 5642 5641 5641 5640 5640 5640 5639 5639 5638 5637 5636 5635 5634 5633 5632 5630 5629 5627 5626 5624 5622 5620 5618 5616 5614 5611 5609 5607 5604 5601 5599 5597 5595 5592 5589 5587 5585 5583 5580 5578 5577 5575 5573 5571 5570 5568 5567 5565 5563 5562 5560 5559 5557 5556 5555 5554 5553 5552 5552 5552 5552 5552 5551 5550 5549 5549 5549 5549 5548 5548 5549 5549 5550 5551 5551 5551 5552 5552 5554 5554 5555 5556
5642 5642 5642 5641 5641 5641 5640 5640 5640 5639 5639 5638 5638 5637 5636 5635 5634 5633 5632 5630 5629 5628 5626 5624 5623 5621 5619 5617 5614 5612 5610 5608 5605 5602 5600 5597 5595 5593 5590 5588 5585 5583 5581 5578 5576 5575 5573 5571 5570 5568 5567 5565 5564 5562 5561 5560 5558 5557 5555 5554 5553 5551 5550 5549 5549 5549 5549 5548 5547 5546 5546 5546 5545 5545 5545 5545 5546 5546 5547 5547 5547 5547 5548 5549 5550 5551 5552
5641 5641 5641 5640 5640 5640 5639 5639 5639 5638 5638 5637 5636 5636 5635 5634 5633 5631 5630 5629 5628 5626 5625 5623 5621 5619 5617 5615 5613 5610 5608 5605 5603 5600 5598 5595 5593 5590 5588 5586 5584 5581 5579 5577 5575 5573 5571 5569 5568 5566 5564 5563 5562 5560 5559 5558 5557 5556 5554 5553 5552 5550 5549 5547 5547 5546 5546 5546 5545 5544 5543 5542 5542 5542 5542 5542 5542 5543 5543 5543 5544 5544 5544 5545 5546 5547 5548
5640 5640 5640 5639 5639 5639 5639 5638 5638 5637 5636 5636 5635 5634 5633 5632 5631 5630 5629 5628 5626 5625 5623 5621 5619 5617 5615 5613 5610 5608 5606 5603 5601 5598 5596 5593 5591 5588 5586 5584 5582 5579 5577 5575 5573 5571 5569 5567 5566 5564 5562 5561 5560 5558 5557 5556 5555 5553 5552 5551 5550 5549 5547 5546 5545 5544 5543 5543 5542 5541 5540 5540 5539 5539 5539 5539 5539 5539 5540 5540 5540 5541 5541 5542 5543 5543 5544
5639 5639 5639 5638 5638 5638 5637 5637 5636 5636 5635 5634 5633 5632 5631 5631 5630 5628 5627 5626 5625 5623 5621 5619 5617 5615 5613 5610 5608 5606 5604 5601 5599 5596 5594 5591 5589 5586 5584 5581 5579 5577 5575 5573 5570 5569 5567 5565 5563 5562 5560 5559 5557 5556 5555 5554 5553 5551 5550 5549 5548 5547 5546 5545 5543 5542 5541 5540 5539 5538 5538 5537 5536 5536 5535 5535 5536 5536 5536 5537 5537 5538 5538 5539 5539 5540 5541
5638 5638 5638 5637 5637 5636 5636 5636 5635 5634 5633 5632 5632 5631 5630 5629 5628 5627 5626 5624 5623 5621 5619 5617 5615 5613 5611 5608 5606 5604 5601 5599 5597 5594 5591 5589 5586 5584 5582 5579 5577 5574 5572 5570 5568 5566 5564 5562 5561 5559 5558 5556 5555 5553 5551 5550 5549 5548 5547 5546 5546 5545 5544 5543 5541 5540 5539 5539 5538 5536 5535 5535 5534 5533 5532 5532 5533 5533 5533 5533 5534 5534 5535 5536 5536 5537 5538
5637 5637 5636 5636 5635 5635 5634 5634 5633 5633 5632 5631 5630 5629 5628 5627 5626 5625 5624 5622 5620 5618 5617 5615 5613 5611 5608 5606 5604 5601 5599 5596 5594 5592 5589 5587 5584 5581 5579 5576 5574 5572 5570 5567 5565 5563 5561 5560 5558 5556 5554 5553 5551 5549 5547 5546 5545 5544 5544 5543 5542 5542 5541 5540 5539 5538 5537 5536 5535 5534 5533 5532 5531 5530 5530 5529 5530 5530 5530 5530 5531 5531 5532 5533 5534 5534 5535
5635 5635 5635 5634 5634 5633 5633 5632 5631 5630 5630 5629 5628 5627 5626 5625 5624 5623 5621 5620 5618 5616 5614 5612 5610 5608 5606 5604 5601 5599 5596 5594 5591 5589 5586 5584 5581 5579 5576 5573 5571 5569 5567 5565 5563 5560 5558 5557 5555 5553 5551 5549 5547 5545 5543 5542 5541 5540 5540 5539 5539 5538 5538 5537 5536 5535 5535 5534 5533 5532 5531 5530 5529 5528 5527 5527 5527 5527 5527 5527 5528 5528 5529 5530 5531 5532 5532
5634 5633 5633 5633 5632 5631 5631 5630 5629 5629 5628 5627 5626 5625 5624 5623 5622 5620 5619 5617 5615 5614 5612 5609 5607 5605 5603 5600 5598 5595 5593 5591 5588 5586 5583 5581 5578 5575 5573 5571 5568 5566 5564 5562 5559 5557 5555 5553 5551 5549 5547 5545 5543 5541 5540 5539 5537 5537 5536 5536 5535 5535 5534 5534 5533 5532 5532 5531 5531 5530 5529 5528 5527 5526 5525 5524 5524 5524 5524 5524 5524 5525 5526 5527 5528 5529 5529
5632 5632 5631 5630 5630 5629 5629 5628 5628 5627 5626 5625 5624 5623 5622 5621 5619 5618 5616 5615 5613 5611 5608 5606 5604 5602 5600 5597 5594 5592 5589 5587 5585 5582 5580 5577 5575 5572 5570 5567 5565 5563 5561 5558 5556 5554 5552 5550 5548 5546 5544 5541 5539 5538 5537 5535 5534 5533 5532 5532 5531 5531 5531 5530 5530 5529 5528 5528 5527 5527 5526 5525 5525 5524 5523 5522 5521 5521 5521 5521 5521 5522 5523 5524 5525 5526 5526
5630 5630 5629 5628 5628 5627 5627 5626 5625 5625 5624 5623 5622 5621 5620 5618 5617 5615 5613 5612 5609 5607 5605 5603 5601 5599 5596 5594 5591 5589 5586 5584 5581 5579 5576 5573 5571 5568 5566 5564 5562 5560 5557 5555 5553 5550 5548 5546 5544 5542 5540 5538 5536 5534 5533 5532 5531 5529 5528 5528 5528 5527 5527 5527 5526 5526 5525 5525 5524 5524 5524 5523 5522 5521 5520 5520 5519 5518 5518 5518 5519 5519 5520 5521 5522 5522 5523
5628 5628 5627 5626 5626 5625 5625 5624 5623 5622 5621 5621 5620 5618 5617 5616 5614 5612 5610 5608 5606 5604 5602 5600 5597 5595 5593 5590 5588 5586 5583 5581 5578 5576 5573 5570 5568 5565 5563 5560 5558 5556 5554 5551 5549 5547 5545 5543 5541 5539 5537 5535 5532 5530 5529 5528 5527 5526 5525 5524 5524 5523 5523 5523 5523 5522 5522 5522 5521 5521 5520 5520 5519 5518 5518 5517 5516 5516 5515 5515 5515 5516 5516 5517 5518 5519 5519
5626 5625 5625 5624 5624 5623 5623 5622 5621 5620 5619 5618 5617 5616 5614 5613 5611 5609 5607 5605 5603 5601 5599 5596 5594 5592 5589 5587 5584 5582 5579 5577 5574 5572 5569 5567 5564 5562 5559 5557 5555 5552 5550 5548 5546 5544 5542 5540 5538 5536 5533 5531 5529 5527 5526 5525 5524 5523 5522 5521 5520 5520 5520 5519 5519 5519 5519 5519 5518 5518 5517 5517 5516 5515 5515 5514 5513 5513 5512 5512 5512 5513 5513 5514 5515 5515 5516